Flag for Australia Weather past 2 weeks in Canberra, Australian Capital Territory, Australia

Now
75 °F

Sunny.


Feels Like: 77 °F
Forecast: 52 / 79 °F
Wind: 17 mph from Northwest

Location: Canberra Airport

Current Time: Oct 26, 2014 at 7:38:25 PM

Latest Report: Oct 26, 2014 at 7:00 PM


Visibility: N/A

Pressure: 29.89 "Hg

Humidity: 27%

Dew point: 39 °F

Location of CanberraLocation

Historic Weather in Canberra — Graph

°F

Canberra temperature yesterday

Maximum temperature yesterday: 86 °F (at 3:00 PM)
Minimum temperature yesterday: 48 °F (at 5:00 AM)
Average temperature yesterday: 66 °F

Past Weeks' High & Low Weather Summary

 TemperatureHumidityPressure
High86 °F (Oct 25, 3:00 PM)100% (Oct 13, 5:30 AM)30.48 "Hg (Oct 13, 5:30 AM)
Low32 °F (Oct 16, 6:30 AM)16% (Oct 26, 12:00 PM)29.65 "Hg (Oct 13, 5:00 PM)
Average57 °F69%30.10 "Hg
* Reported Oct 11 6:00 PM — Oct 26 6:00 PM, Canberra, Weather by CustomWeather, © 2014

Note: Actual official high and low records may vary slightly from our data, if they occured in-between our weather recording intervals... More about our weather records

Advertising

Canberra weather history for previous 24 hours

 ConditionsComfort  
Time TempWeatherWind HumidityBarometerVisibility
6:00 PM
Oct 26
77 °FSunny.13 mph28%29.86 "Hg10 mi
5:30 PM79 °FSunny.15 mph28%29.86 "Hg10 mi
5:00 PM81 °FSunny.13 mph30%29.83 "Hg10 mi
4:30 PM81 °FSunny.15 mph28%29.83 "Hg10 mi
4:00 PM82 °FSunny.15 mph30%29.83 "Hg10 mi
3:30 PM81 °FSunny.16 mph30%29.83 "Hg10 mi
3:00 PM82 °FSunny.18 mph23%29.83 "Hg10 mi
2:00 PM82 °FSunny.17 mph25%29.83 "Hg10 mi
1:30 PM84 °FSunny.18 mph20%29.86 "Hg10 mi
1:00 PM82 °FSunny.18 mph19%29.86 "Hg10 mi
12:30 PM82 °FSunny.20 mph25%29.86 "Hg10 mi
12:00 PM82 °FSunny.23 mph16%29.86 "Hg10 mi
11:30 AM79 °FSunny.18 mph34%29.86 "Hg10 mi
11:00 AM79 °FSunny.10 mph39%29.89 "Hg10 mi
10:30 AM75 °FSunny.14 mph47%29.89 "Hg10 mi
10:00 AM72 °FSunny.9 mph57%29.89 "Hg10 mi
9:30 AM72 °FSunny.8 mph57%29.89 "Hg10 mi
9:00 AM68 °FSunny.5 mph69%29.89 "Hg10 mi
8:00 AM59 °FSunny.5 mph100%29.89 "Hg10 mi
7:30 AM55 °FLight fog.No wind100%29.89 "HgN/A
7:00 AM50 °FSleet. Light fog.No wind100%29.86 "HgN/A
6:30 AM48 °FLight fog.3 mph100%29.86 "HgN/A
6:00 AM50 °FLight fog.No wind100%29.86 "Hg1 mi
5:30 AM50 °FPassing clouds.No wind100%29.86 "Hg0 mi
5:00 AM50 °FPassing clouds.3 mph94%29.86 "Hg0 mi
4:30 AM52 °FClear.3 mph100%29.86 "HgN/A
4:00 AM52 °FClear.3 mph94%29.86 "Hg4 mi
3:30 AM55 °FClear.No wind94%29.86 "Hg5 mi
3:01 AM52 °FClear.No wind100%29.89 "Hg1 mi
2:30 AM55 °FClear.6 mph100%29.89 "Hg6 mi
2:00 AM57 °FClear.5 mph94%29.92 "HgN/A
1:30 AM57 °FClear.6 mph88%29.92 "HgN/A
1:00 AM59 °FClear.7 mph88%29.95 "HgN/A
12:30 AM59 °FClear.9 mph88%29.95 "HgN/A
12:00 AM57 °FClear.6 mph94%29.95 "HgN/A
11:30 PM
Oct 25
61 °FClear.6 mph83%29.95 "HgN/A
11:00 PM61 °FClear.1 mph83%29.98 "HgN/A
10:30 PM63 °FClear.2 mph83%29.98 "HgN/A
10:00 PM64 °FClear.6 mph78%29.98 "HgN/A
9:30 PM68 °FClear.7 mph69%29.98 "HgN/A
9:00 PM70 °FClear.10 mph60%29.98 "HgN/A
8:30 PM68 °FClear.3 mph60%29.95 "HgN/A
8:00 PM66 °FClear.6 mph56%29.95 "HgN/A
7:30 PM70 °FClear.6 mph50%29.95 "HgN/A
7:00 PM79 °FSunny.7 mph34%29.95 "HgN/A
Weather by CustomWeather, © 2014

See weather overviewHow to use our weather pages